Location: Houston
(29.7630°N, 95.3630°W)
Time: 03:36:51
(UTC-05:00)

Amateur Radio Satellites - All Passes

Search period start: 23 October 2014 03:06
Search period end: 24 October 2014 03:06
Location: Houston, 29.7630°N, 95.3630°W

Satellite Date Start Highest point End Downlink Frequencies (MHz)
Time Altitude Azimuth
Oscar 10/S400 23 Oct 03:14:06 04:03:00 14° 255° (WSW) 05:21:09 145.825 - 145.975 CW/USB, Beacon 145.810 USB
AO-27 23 Oct 03:14:28 03:19:34 52° 101° (E) 03:24:37 436.795 MHz FM
Sapphire 23 Oct 03:40:03 03:44:06 22° 106° (ESE) 03:48:10 437.095 MHz 1200 baud AX-25 AFSK
Oscar 16 23 Oct 03:48:09 03:52:15 25° 290° (WNW) 03:56:21 437.025 USB, Beacon 2401.1428
AO-Echo 23 Oct 03:59:03 04:03:58 40° 287° (WNW) 04:08:52 ?
JAS-1B 23 Oct 04:00:04 04:06:20 40° 288° (WNW) 04:13:42 435.800 - 435.900 CW/SSB
PCSat 23 Oct 04:01:42 04:06:43 41° 109° (ESE) 04:11:45 145.825 MHz
Uribyol 2 23 Oct 04:03:23 04:08:19 45° 287° (WNW) 04:13:13 436.500 FM
ITAMSAT 1 23 Oct 04:08:55 04:13:49 42° 287° (WNW) 04:18:41 435.822 SSB
Gurwin Techsat 1B 23 Oct 04:16:31 04:21:49 73° 284° (WNW) 04:27:05 435.225 FM
TMSAT-1 23 Oct 04:29:05 04:34:23 76° 284° (WNW) 04:39:39 436.925 FM
AO-7 23 Oct 04:31:25 04:38:01 26° 98° (E) 04:44:35 29.400 - 29.500 MHz
OPAL 23 Oct 04:39:27 04:42:29 16° 65° (ENE) 04:45:30 ?
AO-27 23 Oct 04:55:47 04:58:34 15° 294° (WNW) 05:01:20 436.795 MHz FM
Sapphire 23 Oct 05:22:16 05:27:13 36° 299° (WNW) 05:32:12 437.095 MHz 1200 baud AX-25 AFSK
Uosat F 23 Oct 05:41:53 05:46:57 76° 103° (ESE) 05:51:58 435.120 FM
PCSat 23 Oct 05:46:11 05:50:13 21° 303° (WNW) 05:54:16 145.825 MHz
JAS-2 23 Oct 06:04:44 06:11:53 38° 97° (E) 06:18:53 435.800 - 435.900 CW/SSB, 435.910 FM
OPAL 23 Oct 06:15:56 06:20:55 48° 258° (WSW) 06:25:53 ?
STRAND 1 23 Oct 06:20:54 06:23:41 15° 67° (ENE) 06:26:27 ?
AO-7 23 Oct 06:22:56 06:30:58 55° 291° (WNW) 06:39:01 29.400 - 29.500 MHz
Hamsat 23 Oct 06:33:28 06:37:12 31° 98° (E) 06:40:57 145.90 MHz
RS-15 23 Oct 06:53:10 07:01:48 24° 45° (NE) 07:10:37 29.354 - 29.394 USB, Beacon 29.352 USB
Saudisat 1A 23 Oct 07:24:06 07:27:24 21° 110° (ESE) 07:30:43 436.775 MHz
PANSAT 23 Oct 07:32:19 07:35:20 22° 158° (SSE) 07:38:21 not established
SO-67 23 Oct 07:33:04 07:35:03 15° 95° (E) 07:37:01 435.3500 MHz FM
JAS-2 23 Oct 07:49:38 07:56:40 39° 290° (WNW) 08:03:40 435.800 - 435.900 CW/SSB, 435.910 FM
STRAND 1 23 Oct 07:57:26 08:02:23 50° 260° (W) 08:07:21 ?
Hamsat 23 Oct 08:10:25 08:12:51 15° 290° (WNW) 08:15:17 145.90 MHz
Saudisat 1A 23 Oct 09:03:03 09:06:46 27° 303° (WNW) 09:10:31 436.775 MHz
RS-15 23 Oct 09:04:05 09:15:24 84° 246° (WSW) 09:27:15 29.354 - 29.394 USB, Beacon 29.352 USB
SO-67 23 Oct 09:05:22 09:07:55 20° 287° (WNW) 09:10:27 435.3500 MHz FM
HO-68 23 Oct 09:08:54 09:13:59 21° 96° (E) 09:19:02 435.675 MHz FM
PANSAT 23 Oct 09:11:26 09:15:11 56° 170° (S) 09:18:57 not established
Oscar 11 23 Oct 10:18:12 10:21:37 23° 97° (E) 10:25:00 145.825 FM, Beacon 2401.500 USB
PANSAT 23 Oct 10:51:26 10:55:15 73° 183° (S) 10:59:04 not established
HO-68 23 Oct 10:54:54 11:01:55 57° 289° (WNW) 11:08:53 435.675 MHz FM
MaSat-1 23 Oct 10:54:57 10:57:23 59° 251° (WSW) 10:59:42 437.345 MHz
ZACube-1 23 Oct 11:02:21 11:06:03 29° 97° (E) 11:09:41 437.345 MHz
UKube-1 23 Oct 11:10:22 11:14:43 69° 284° (WNW) 11:19:02 145.840 MHz, 145.915 MHz
RS-15 23 Oct 11:20:47 11:26:17 15° 260° (W) 11:31:54 29.354 - 29.394 USB, Beacon 29.352 USB
KITSAT 1 23 Oct 11:22:04 11:27:15 19° 103° (ESE) 11:32:26 435.175 FM
FUNcube-1 23 Oct 11:47:06 11:51:19 70° 283° (WNW) 11:55:26 145.950 - 145.970 MHz USB
Oscar 11 23 Oct 11:54:21 11:57:37 22° 289° (WNW) 12:00:54 145.825 FM, Beacon 2401.500 USB
PANSAT 23 Oct 12:31:38 12:35:15 41° 195° (SSW) 12:38:53 not established
SO-50 23 Oct 12:38:15 12:41:31 20° 109° (ESE) 12:44:51 436.795 FM
ZACube-1 23 Oct 12:39:36 12:42:09 16° 290° (WNW) 12:44:41 437.345 MHz
JAS-1B 23 Oct 12:54:51 12:56:00 11° 65° (ENE) 12:57:08 435.800 - 435.900 CW/SSB
ISS 23 Oct 12:54:58 12:58:15 64° 132° (SE) 13:01:32 145.800 FM
Oscar 10/S400 23 Oct 12:57:00 13:21:50 46° 154° (SSE) 13:40:22 145.825 - 145.975 CW/USB, Beacon 145.810 USB
KITSAT 1 23 Oct 13:13:48 13:21:50 70° 297° (WNW) 13:29:54 435.175 FM
Oscar 16 23 Oct 13:20:14 13:24:14 23° 70° (ENE) 13:28:15 437.025 USB, Beacon 2401.1428
AO-Echo 23 Oct 13:30:26 13:32:16 12° 66° (ENE) 13:34:08 ?
Uribyol 2 23 Oct 13:38:35 13:41:08 14° 66° (ENE) 13:43:41 436.500 FM
ITAMSAT 1 23 Oct 13:43:57 13:46:44 15° 66° (ENE) 13:49:31 435.822 SSB
UOSAT-12 23 Oct 14:11:02 14:13:49 16° 108° (ESE) 14:16:39 437.025 FM, 437.400 FM
Oscar 19 23 Oct 14:12:36 14:17:46 83° 76° (ENE) 14:22:55 437.125 CW, 437.150 USB
PANSAT 23 Oct 14:12:57 14:15:00 14° 205° (SSW) 14:17:02 not established
Sapphire 23 Oct 14:15:50 14:21:06 49° 63° (ENE) 14:26:20 437.095 MHz 1200 baud AX-25 AFSK
SO-50 23 Oct 14:17:56 14:21:49 29° 303° (WNW) 14:25:48 436.795 FM
AO-27 23 Oct 14:26:43 14:31:36 43° 73° (ENE) 14:36:31 436.795 MHz FM
ISS 23 Oct 14:34:10 14:35:13 11° 326° (NNW) 14:36:17 145.800 FM
PCSat 23 Oct 14:38:26 14:43:53 90° 64° (ENE) 14:49:17 145.825 MHz
JAS-1B 23 Oct 14:39:47 14:46:08 73° 257° (WSW) 14:51:52 435.800 - 435.900 CW/SSB
Oscar 16 23 Oct 14:58:49 15:03:21 31° 262° (W) 15:07:55 437.025 USB, Beacon 2401.1428
AO-Echo 23 Oct 15:05:46 15:10:27 55° 260° (W) 15:15:19 ?
Uribyol 2 23 Oct 15:14:59 15:20:04 55° 259° (W) 15:25:12 436.500 FM
KITSAT 1 23 Oct 15:15:22 15:18:39 13° 316° (NW) 15:21:57 435.175 FM
ITAMSAT 1 23 Oct 15:20:41 15:25:43 52° 259° (W) 15:30:48 435.822 SSB
AO-7 23 Oct 15:25:06 15:30:53 22° 60° (ENE) 15:36:40 29.400 - 29.500 MHz
Gurwin Techsat 1B 23 Oct 15:31:26 15:36:44 85° 257° (WSW) 15:42:04 435.225 FM
TMSAT-1 23 Oct 15:43:39 15:48:57 88° 257° (WSW) 15:54:17 436.925 FM
UOSAT-12 23 Oct 15:49:17 15:53:35 39° 301° (WNW) 15:57:58 437.025 FM, 437.400 FM
Sapphire 23 Oct 16:00:52 16:04:02 16° 256° (WSW) 16:07:11 437.095 MHz 1200 baud AX-25 AFSK
AO-27 23 Oct 16:07:58 16:11:13 17° 265° (W) 16:14:29 436.795 MHz FM
Uosat F 23 Oct 16:49:09 16:54:01 55° 74° (ENE) 16:58:55 435.120 FM
AO-7 23 Oct 17:14:40 17:22:53 69° 255° (WSW) 17:31:08 29.400 - 29.500 MHz
Hamsat 23 Oct 17:23:32 17:24:39 11° 69° (ENE) 17:25:45 145.90 MHz
Saudisat 1A 23 Oct 17:34:40 17:38:52 41° 59° (ENE) 17:43:01 436.775 MHz
JAS-2 23 Oct 17:54:57 18:00:25 54° 73° (ENE) 18:06:36 435.800 - 435.900 CW/SSB, 435.910 FM
Uosat F 23 Oct 18:31:12 18:33:02 12° 266° (W) 18:34:52 435.120 FM
OPAL 23 Oct 18:31:46 18:36:43 77° 104° (ESE) 18:41:39 ?
Hamsat 23 Oct 18:56:07 19:00:09 44° 261° (W) 19:04:10 145.90 MHz
Saudisat 1A 23 Oct 19:15:51 19:18:01 14° 252° (WSW) 19:20:11 436.775 MHz
SO-67 23 Oct 19:31:12 19:34:28 43° 76° (ENE) 19:37:44 435.3500 MHz FM
JAS-2 23 Oct 19:42:44 19:45:59 15° 269° (W) 19:49:26 435.800 - 435.900 CW/SSB, 435.910 FM
STRAND 1 23 Oct 20:13:59 20:19:09 88° 284° (WNW) 20:24:17 ?
AO-40 23 Oct 21:01:01 22:14:04 14° 101° (E) 23:02:41 Beacon 2401.320
ISS 23 Oct 21:04:51 21:08:06 50° 44° (NE) 21:11:21 145.800 FM
RS-15 23 Oct 21:11:11 21:19:16 24° 103° (ESE) 21:27:11 29.354 - 29.394 USB, Beacon 29.352 USB
KITSAT 1 23 Oct 21:15:04 21:20:57 22° 51° (NE) 21:26:48 435.175 FM
HO-68 23 Oct 21:16:16 21:23:14 59° 71° (ENE) 21:30:15 435.675 MHz FM
ZACube-1 23 Oct 21:54:19 21:56:34 14° 69° (ENE) 21:58:49 437.345 MHz
UKube-1 23 Oct 21:59:47 22:03:54 45° 74° (ENE) 22:08:04 145.840 MHz, 145.915 MHz
FUNcube-1 23 Oct 22:36:59 22:41:20 43° 75° (ENE) 22:45:40 145.950 - 145.970 MHz USB
Oscar 11 23 Oct 22:42:16 22:46:32 59° 259° (W) 22:50:48 145.825 FM, Beacon 2401.500 USB
SO-50 23 Oct 22:54:26 22:59:08 48° 60° (ENE) 23:03:51 436.795 FM
HO-68 23 Oct 23:06:19 23:11:12 20° 264° (W) 23:16:07 435.675 MHz FM
KITSAT 1 23 Oct 23:08:57 23:16:59 73° 248° (WSW) 23:24:59 435.175 FM
RS-15 23 Oct 23:19:31 23:30:33 71° 299° (WNW) 23:41:27 29.354 - 29.394 USB, Beacon 29.352 USB
ZACube-1 23 Oct 23:28:09 23:32:32 43° 261° (W) 23:36:54 437.345 MHz
UKube-1 23 Oct 23:39:08 23:40:14 11° 266° (W) 23:41:21 145.840 MHz, 145.915 MHz
FUNcube-1 24 Oct 00:15:44 00:17:48 13° 266° (W) 00:19:52 145.950 - 145.970 MHz USB
UOSAT-12 24 Oct 00:24:35 00:28:51 34° 58° (ENE) 00:33:02 437.025 FM, 437.400 FM
MaSat-1 24 Oct 00:25:07 00:29:25 68° 292° (WNW) 00:33:24 437.345 MHz
SO-50 24 Oct 00:36:42 00:39:16 14° 252° (WSW) 00:41:49 436.795 FM
RS-15 24 Oct 01:38:55 01:45:09 16° 322° (NW) 01:51:26 29.354 - 29.394 USB, Beacon 29.352 USB
Oscar 16 24 Oct 01:39:18 01:41:30 13° 94° (E) 01:43:42 437.025 USB, Beacon 2401.1428
UOSAT-12 24 Oct 02:05:28 02:08:41 19° 251° (WSW) 02:11:52 437.025 FM, 437.400 FM
JAS-1B 24 Oct 02:28:13 02:34:56 45° 101° (ESE) 02:42:51 435.800 - 435.900 CW/SSB
Oscar 19 24 Oct 02:30:31 02:35:27 48° 100° (E) 02:40:22 437.125 CW, 437.150 USB
AO-27 24 Oct 02:46:21 02:50:40 26° 97° (E) 02:54:56 436.795 MHz FM
